Sandpoint, ID

5:48 AM PDT on September 26, 2017 (GMT -0700)
Sandpoint

Weather History for KSZT - August, 2013

Change the Weather History Date:

Friday, August 9, 2013

  Actual Average Record
Temperature  
Mean Temperature 71 °F -  
Max Temperature 89 °F 84 °F 95 °F (1922)
Min Temperature 53 °F 48 °F 35 °F (1914)
Cooling Degree Days 6    
Growing Degree Days 21 (Base 50)    
Moisture  
Dew Point 53 °F    
Average Humidity 50    
Maximum Humidity 100    
Minimum Humidity 25    
Precipitation  
Precipitation 0.00 in - - ()
Sea Level Pressure  
Sea Level Pressure 29.91 in    
Wind  
Wind Speed 8 mph (NNE)    
Max Wind Speed 16 mph    
Max Gust Speed 24 mph    
Visibility 10 miles    
Events      
Averages and records for this station are not official NWS values.
T = Trace of Precipitation, MM = Missing Value Source: NWS Daily Summary

Daily Weather History Graph

Daily Weather History Graph

Search for Another Location

Airport or City:

Trip Planner

Search our weather history database for the weather conditions in past years. The results will help you decide how hot, cold, wet, or windy it might be!

Date:

Astronomy

Aug. 09, 2013 Rise Set
Actual Time 5:32 AM PDT 8:09 PM PDT
Civil Twilight 4:57 AM PDT 8:45 PM PDT
Nautical Twilight 4:12 AM PDT 9:29 PM PDT
Astronomical Twilight 3:19 AM PDT 10:21 PM PDT
Moon 8:42 AM PDT (8/9) 9:00 PM PDT (8/9)
Length of Visible Light 15h 47m
Length of Day
14h 37m
Waxing Crescent, 8% of the Moon is Illuminated
Aug 9
Waxing Crescent
Aug 14
First Quarter
Aug 20
Full
Aug 28
Last Quarter
Sep 5
New

Hourly Weather History & Observations

Time (PDT) Temp. Heat Index Dew Point Humidity Pressure Visibility Wind Dir Wind Speed Gust Speed Precip Events Conditions
12:15 AM 55.4 °F - 51.8 °F 88% 29.94 in 10.0 mi Calm Calm - N/A   Clear
12:35 AM 57.2 °F - 51.8 °F 82% 29.94 in 10.0 mi Calm Calm - N/A   Clear
12:55 AM 55.4 °F - 51.8 °F 88% 29.94 in 10.0 mi Calm Calm - N/A   Clear
1:15 AM 55.4 °F - 53.6 °F 94% 29.95 in 10.0 mi Calm Calm - N/A   Clear
1:35 AM 55.4 °F - 53.6 °F 94% 29.94 in 10.0 mi West 3.5 mph - N/A   Clear
1:55 AM 55.4 °F - 55.4 °F 100% 29.95 in 10.0 mi WNW 3.5 mph - N/A   Clear
2:15 AM 55.4 °F - 53.6 °F 94% 29.95 in 10.0 mi Calm Calm - N/A   Clear
2:35 AM 53.6 °F - 53.6 °F 100% 29.95 in 10.0 mi Calm Calm - N/A   Clear
2:55 AM 55.4 °F - 53.6 °F 94% 29.96 in 10.0 mi NNE 10.4 mph - N/A   Clear
3:15 AM 59.0 °F - 53.6 °F 82% 29.96 in 10.0 mi NNE 11.5 mph - N/A   Clear
3:35 AM 66.2 °F - 51.8 °F 60% 29.95 in 10.0 mi NNE 16.1 mph 20.7 mph N/A   Clear
3:55 AM 64.4 °F - 51.8 °F 64% 29.95 in 10.0 mi NNE 16.1 mph - N/A   Clear
4:15 AM 68.0 °F - 51.8 °F 56% 29.95 in 10.0 mi NNE 16.1 mph 23.0 mph N/A   Clear
4:35 AM 64.4 °F - 51.8 °F 64% 29.95 in 10.0 mi NNE 15.0 mph - N/A   Clear
4:55 AM 64.4 °F - 51.8 °F 64% 29.96 in 10.0 mi NNE 12.7 mph - N/A   Clear
5:15 AM 64.4 °F - 51.8 °F 64% 29.96 in 10.0 mi NNE 13.8 mph - N/A   Clear
5:35 AM 64.4 °F - 51.8 °F 64% 29.95 in 10.0 mi NNE 16.1 mph - N/A   Clear
5:55 AM 66.2 °F - 51.8 °F 60% 29.95 in 10.0 mi NE 15.0 mph 19.6 mph N/A   Clear
6:15 AM 68.0 °F - 51.8 °F 56% 29.96 in 10.0 mi NNE 10.4 mph - N/A   Clear
6:35 AM 66.2 °F - 53.6 °F 64% 29.97 in 10.0 mi NNE 10.4 mph - N/A   Clear
6:55 AM 68.0 °F - 53.6 °F 60% 29.97 in 10.0 mi NNE 11.5 mph - N/A   Clear
7:15 AM 68.0 °F - 53.6 °F 60% 29.97 in 10.0 mi NNE 11.5 mph - N/A   Clear
7:35 AM 69.8 °F - 53.6 °F 56% 29.97 in 10.0 mi NNE 12.7 mph 18.4 mph N/A   Clear
7:55 AM 69.8 °F - 53.6 °F 56% 29.98 in 10.0 mi NNE 10.4 mph - N/A   Clear
8:15 AM 71.6 °F - 53.6 °F 53% 29.98 in 10.0 mi NNE 16.1 mph - N/A   Clear
8:35 AM 73.4 °F - 53.6 °F 50% 29.97 in 10.0 mi NNE 11.5 mph 19.6 mph N/A   Clear
8:55 AM 75.2 °F - 53.6 °F 47% 29.97 in 10.0 mi NNE 16.1 mph 21.9 mph N/A   Clear
9:15 AM 77.0 °F - 53.6 °F 44% 29.97 in 10.0 mi NNE 16.1 mph 24.2 mph N/A   Clear
9:35 AM 77.0 °F - 53.6 °F 44% 29.96 in 10.0 mi NNE 16.1 mph 23.0 mph N/A   Clear
9:55 AM 78.8 °F - 53.6 °F 42% 29.97 in 10.0 mi NE 15.0 mph 24.2 mph N/A   Clear
10:15 AM 78.8 °F - 53.6 °F 42% 29.96 in 10.0 mi NE 15.0 mph 23.0 mph N/A   Clear
10:35 AM 80.6 °F 80.3 °F 53.6 °F 39% 29.96 in 10.0 mi NNE 11.5 mph 19.6 mph N/A   Clear
10:55 AM 80.6 °F 80.3 °F 53.6 °F 39% 29.96 in 10.0 mi NNE 13.8 mph - N/A   Clear
11:15 AM 82.4 °F 81.4 °F 53.6 °F 37% 29.95 in 10.0 mi NNE 10.4 mph 18.4 mph N/A   Clear
11:35 AM 82.4 °F 81.4 °F 53.6 °F 37% 29.95 in 10.0 mi NE 13.8 mph 18.4 mph N/A   Clear
11:55 AM 84.2 °F 82.8 °F 53.6 °F 35% 29.94 in 10.0 mi NNE 13.8 mph 17.3 mph N/A   Clear
12:15 PM 86.0 °F 84.2 °F 53.6 °F 33% 29.93 in 10.0 mi NE 12.7 mph - N/A   Clear
12:35 PM 86.0 °F 84.2 °F 53.6 °F 33% 29.93 in 10.0 mi NNE 10.4 mph 16.1 mph N/A   Clear
12:55 PM 86.0 °F 84.2 °F 53.6 °F 33% 29.92 in 10.0 mi ENE 9.2 mph - N/A   Clear
1:15 PM 87.8 °F 85.7 °F 53.6 °F 31% 29.92 in 10.0 mi North 10.4 mph - N/A   Clear
1:35 PM 87.8 °F 85.7 °F 53.6 °F 31% 29.92 in 7.0 mi NE 6.9 mph - N/A   Clear
1:55 PM 87.8 °F 85.7 °F 53.6 °F 31% 29.91 in 10.0 mi ENE 5.8 mph - N/A   Clear
2:15 PM 86.0 °F 84.5 °F 55.4 °F 35% 29.91 in 10.0 mi ESE 6.9 mph - N/A   Clear
2:35 PM 86.0 °F 84.5 °F 55.4 °F 35% 29.90 in 10.0 mi ESE 6.9 mph - N/A   Clear
2:55 PM 87.8 °F 86.1 °F 55.4 °F 33% 29.90 in 10.0 mi SE 5.8 mph - N/A   Clear
3:15 PM 87.8 °F 86.1 °F 55.4 °F 33% 29.88 in 10.0 mi SE 6.9 mph - N/A   Clear
3:35 PM 87.8 °F 86.1 °F 55.4 °F 33% 29.88 in 10.0 mi ESE 5.8 mph - N/A   Clear
3:55 PM 87.8 °F 86.1 °F 55.4 °F 33% 29.87 in 10.0 mi SE 4.6 mph - N/A   Clear
4:15 PM 87.8 °F 85.7 °F 53.6 °F 31% 29.86 in 10.0 mi Calm Calm - N/A   Clear
4:35 PM 89.6 °F - 51.8 °F 27% 29.85 in 10.0 mi North 9.2 mph - N/A   Clear
4:55 PM 89.6 °F - 51.8 °F 27% 29.84 in 10.0 mi North 6.9 mph - N/A   Clear
5:15 PM 89.6 °F - 51.8 °F 27% 29.84 in 10.0 mi North 5.8 mph - N/A   Clear
5:35 PM 89.6 °F - 51.8 °F 27% 29.83 in 10.0 mi North 6.9 mph - N/A   Clear
5:55 PM 89.6 °F - 50.0 °F 26% 29.83 in 10.0 mi North 6.9 mph - N/A   Clear
6:15 PM 87.8 °F - 50.0 °F 27% 29.83 in 10.0 mi North 4.6 mph - N/A   Clear
6:35 PM 87.8 °F - 48.2 °F 25% 29.84 in 10.0 mi North 4.6 mph - N/A   Clear
6:55 PM 86.0 °F - 50.0 °F 29% 29.84 in 10.0 mi NNE 3.5 mph - N/A   Clear
7:15 PM 84.2 °F - 51.8 °F 33% 29.84 in 10.0 mi NE 4.6 mph - N/A   Clear
7:35 PM 80.6 °F - 51.8 °F 37% 29.84 in 10.0 mi NNE 4.6 mph - N/A   Clear
7:55 PM 78.8 °F - 53.6 °F 42% 29.85 in 10.0 mi ENE 3.5 mph - N/A   Clear
8:15 PM 78.8 °F - 51.8 °F 39% 29.85 in 10.0 mi NNE 6.9 mph - N/A   Clear
8:35 PM 77.0 °F - 51.8 °F 41% 29.85 in 10.0 mi NNE 6.9 mph - N/A   Clear
8:55 PM 77.0 °F - 51.8 °F 41% 29.84 in 10.0 mi NNE 9.2 mph - N/A   Clear
9:15 PM 77.0 °F - 53.6 °F 44% 29.85 in 10.0 mi NNE 10.4 mph - N/A   Clear
9:35 PM 75.2 °F - 53.6 °F 47% 29.86 in 10.0 mi NNE 10.4 mph - N/A   Clear
9:55 PM 75.2 °F - 53.6 °F 47% 29.86 in 10.0 mi NNE 11.5 mph - N/A   Clear
10:15 PM 75.2 °F - 53.6 °F 47% 29.86 in 10.0 mi NNE 10.4 mph - N/A   Clear
10:35 PM 75.2 °F - 51.8 °F 44% 29.86 in 10.0 mi NNE 13.8 mph - N/A   Clear
10:55 PM 73.4 °F - 51.8 °F 47% 29.86 in 10.0 mi NNE 16.1 mph - N/A   Clear
11:15 PM 73.4 °F - 51.8 °F 47% 29.85 in 10.0 mi NNE 15.0 mph - N/A   Clear
11:35 PM 73.4 °F - 53.6 °F 50% 29.87 in 10.0 mi NNE 13.8 mph - N/A   Clear
11:55 PM 73.4 °F - 55.4 °F 53% 29.90 in 10.0 mi East 13.8 mph 19.6 mph N/A   Scattered Clouds